This is the latest recevied weather packets stored in our database for station/object K1JO. If no packets are shown the sender has not sent any weather packets the latest 10 day(s).
| Time | Temp. | Humidity | Pressure | Rain* | Wind** | Luminosity | Snow |
|---|---|---|---|---|---|---|---|
| 1777558669 | 7.22° C | 97% | 1006.4 hPa | 0 mm | - | 170 W/m² | - |
| 1777557151 | 6.67° C | 96% | 1006.9 hPa | 0 mm | - | 71 W/m² | - |
| 1777555939 | 6.67° C | 96% | 1007.1 hPa | 0 mm | - | 55 W/m² | - |
| 1777554725 | 6.67° C | 95% | 1007.2 hPa | 0 mm | - | 65 W/m² | - |
| 1777554118 | 6.67° C | 94% | 1007.3 hPa | 0 mm | - | 59 W/m² | - |
| 1777553207 | 6.67° C | 95% | 1007.4 hPa | 0 mm | - | 61 W/m² | - |
| 1777552598 | 6.67° C | 95% | 1007.5 hPa | 0 mm | - | 91 W/m² | - |
| 1777551991 | 6.67° C | 95% | 1007.3 hPa | 0 mm | - | 113 W/m² | - |
| 1777551689 | 6.11° C | 95% | 1007.8 hPa | 0 mm | - | 115 W/m² | - |
| 1777548654 | 6.11° C | 96% | 1007.8 hPa | 0 mm | - | 69 W/m² | - |
| 1777548351 | 6.11° C | 96% | 1007.9 hPa | 0 mm | - | 66 W/m² | - |
| 1777548049 | 6.11° C | 96% | 1007.9 hPa | 0 mm | - | 47 W/m² | - |
| 1777547744 | 6.11° C | 96% | 1008.2 hPa | 0 mm | - | 36 W/m² | - |
| 1777547441 | 6.11° C | 96% | 1008.1 hPa | 0 mm | - | 37 W/m² | - |
| 1777546836 | 6.11° C | 96% | 1007.8 hPa | 0 mm | - | 45 W/m² | - |
| 1777546532 | 6.11° C | 96% | 1008 hPa | 0 mm | - | 51 W/m² | - |
| 1777545319 | 5.56° C | 97% | 1007.8 hPa | 0 mm | - | 32 W/m² | - |
| 1777545017 | 5.56° C | 97% | 1008.2 hPa | 0 mm | - | 38 W/m² | - |
| 1777544713 | 5.56° C | 97% | 1008 hPa | 0 mm | - | 37 W/m² | - |
| 1777544409 | 5.56° C | 97% | 1008.1 hPa | 0 mm | - | 35 W/m² | - |
| 1777544105 | 5.56° C | 97% | 1008.1 hPa | 0 mm | - | 31 W/m² | - |
| 1777543803 | 5.56° C | 97% | 1008 hPa | 0 mm | - | 26 W/m² | - |
| 1777543498 | 5.56° C | 97% | 1008 hPa | 0 mm | - | 19 W/m² | - |
| 1777543195 | 6.11° C | 97% | 1008.1 hPa | 0 mm | - | 16 W/m² | - |
| 1777542891 | 6.11° C | 97% | 1008 hPa | 0 mm | - | 17 W/m² | - |
* Rain latest hour (hover to see other rain measurements)
** Current wind speed in m/s (hover to see current wind gust speed)